Saint Bonnet de Bellac- Haute Vienne - France
Donnes mto: jeudi, 17/05/2012
Date Horaire Temp. E. Hum. E. P.atmo. Pluie Vent Direction Direction Ensoleilleme Solaire P. de rose Temp au vent Rafales
17/05/2012 00:00 7,6 C 61 % 1021,7 hPa 0,0 mm 0,0 km/h (0 Bft) E 90 0 min 0 W/m 0,6 C 7,6 C 0,0 km/h (0 Bft)
17/05/2012 00:10 7,4 C 62 % 1021,6 hPa 0,0 mm 0,4 km/h (0 Bft) E-NE 67 0 min 0 W/m 0,6 C 7,4 C 3,6 km/h (1 Bft)
17/05/2012 00:20 7,2 C 62 % 1021,6 hPa 0,0 mm 2,9 km/h (1 Bft) NE 45 0 min 0 W/m 0,4 C 7,2 C 4,0 km/h (1 Bft)
17/05/2012 00:30 7,1 C 63 % 1021,4 hPa 0,0 mm 1,1 km/h (1 Bft) E-NE 67 0 min 0 W/m 0,5 C 7,1 C 4,0 km/h (1 Bft)
17/05/2012 00:40 6,9 C 63 % 1021,1 hPa 0,0 mm 1,8 km/h (1 Bft) E 90 0 min 0 W/m 0,4 C 6,9 C 2,9 km/h (1 Bft)
17/05/2012 00:50 6,8 C 63 % 1020,9 hPa 0,0 mm 4,3 km/h (1 Bft) E 90 0 min 0 W/m 0,3 C 6,8 C 11,5 km/h (2 Bft)
17/05/2012 01:00 6,8 C 64 % 1020,8 hPa 0,0 mm 3,6 km/h (1 Bft) NE 45 0 min 0 W/m 0,5 C 6,8 C 6,5 km/h (2 Bft)
17/05/2012 01:10 6,6 C 64 % 1020,7 hPa 0,0 mm 0,0 km/h (0 Bft) NE 45 0 min 0 W/m 0,3 C 6,6 C 0,0 km/h (0 Bft)
17/05/2012 01:20 6,6 C 64 % 1020,6 hPa 0,0 mm 2,5 km/h (1 Bft) NE 45 0 min 0 W/m 0,3 C 6,6 C 4,3 km/h (1 Bft)
17/05/2012 01:30 6,6 C 64 % 1020,6 hPa 0,0 mm 2,5 km/h (1 Bft) NE 45 0 min 0 W/m 0,3 C 6,6 C 2,5 km/h (1 Bft)
17/05/2012 01:40 6,5 C 64 % 1020,5 hPa 0,0 mm 0,7 km/h (0 Bft) E 90 0 min 0 W/m 0,2 C 6,5 C 4,3 km/h (1 Bft)
17/05/2012 01:50 6,4 C 64 % 1020,5 hPa 0,0 mm 0,0 km/h (0 Bft) E-NE 67 0 min 0 W/m 0,1 C 6,4 C 0,0 km/h (0 Bft)
17/05/2012 02:00 6,2 C 64 % 1020,4 hPa 0,0 mm 0,0 km/h (0 Bft) E-NE 67 0 min 0 W/m -0,1 C 6,2 C 0,0 km/h (0 Bft)
17/05/2012 02:10 5,9 C 65 % 1020,1 hPa 0,0 mm 0,0 km/h (0 Bft) E-NE 67 0 min 0 W/m -0,2 C 5,9 C 0,0 km/h (0 Bft)
17/05/2012 02:20 5,8 C 65 % 1020,1 hPa 0,0 mm 0,0 km/h (0 Bft) E-NE 67 0 min 0 W/m -0,3 C 5,8 C 0,0 km/h (0 Bft)
17/05/2012 02:30 5,6 C 66 % 1019,8 hPa 0,0 mm 0,0 km/h (0 Bft) E 90 0 min 0 W/m -0,2 C 5,6 C 0,0 km/h (0 Bft)
17/05/2012 02:40 5,4 C 66 % 1019,6 hPa 0,0 mm 0,0 km/h (0 Bft) E-SE 112 0 min 0 W/m -0,4 C 5,4 C 0,0 km/h (0 Bft)
17/05/2012 02:50 5,1 C 66 % 1019,1 hPa 0,0 mm 0,0 km/h (0 Bft) E-NE 67 0 min 0 W/m -0,7 C 5,1 C 0,0 km/h (0 Bft)
17/05/2012 03:02 5,1 C 67 % 1018,7 hPa 0,0 mm 1,4 km/h (1 Bft) NE 45 0 min 0 W/m -0,5 C 5,1 C 3,2 km/h (1 Bft)
17/05/2012 03:10 5,0 C 68 % 1018,8 hPa 0,0 mm 0,0 km/h (0 Bft) E-NE 67 0 min 0 W/m -0,4 C 5,0 C 0,0 km/h (0 Bft)
17/05/2012 03:20 4,9 C 68 % 1018,6 hPa 0,0 mm 0,0 km/h (0 Bft) N-NE 22 0 min 0 W/m -0,5 C 4,9 C 3,2 km/h (1 Bft)
17/05/2012 03:30 4,9 C 68 % 1018,3 hPa 0,0 mm 0,7 km/h (0 Bft) E-NE 67 0 min 0 W/m -0,5 C 4,9 C 4,0 km/h (1 Bft)
17/05/2012 03:40 4,9 C 68 % 1018,0 hPa 0,0 mm 1,8 km/h (1 Bft) E-NE 67 0 min 0 W/m -0,5 C 4,9 C 4,3 km/h (1 Bft)
17/05/2012 03:50 4,8 C 68 % 1017,9 hPa 0,0 mm 0,0 km/h (0 Bft) N-NE 22 0 min 0 W/m -0,6 C 4,8 C 0,0 km/h (0 Bft)
17/05/2012 04:00 4,8 C 69 % 1017,8 hPa 0,0 mm 0,0 km/h (0 Bft) N 360 0 min 0 W/m -0,4 C 4,8 C 1,4 km/h (1 Bft)
17/05/2012 04:10 4,6 C 69 % 1017,6 hPa 0,0 mm 0,0 km/h (0 Bft) NE 45 0 min 0 W/m -0,6 C 4,6 C 0,0 km/h (0 Bft)
17/05/2012 04:20 4,4 C 70 % 1017,6 hPa 0,0 mm 0,0 km/h (0 Bft) N-NE 22 0 min 0 W/m -0,6 C 4,4 C 3,6 km/h (1 Bft)
17/05/2012 04:30 4,3 C 70 % 1017,3 hPa 0,0 mm 0,7 km/h (0 Bft) NE 45 0 min 0 W/m -0,7 C 4,3 C 0,7 km/h (0 Bft)
17/05/2012 04:40 4,3 C 71 % 1017,4 hPa 0,0 mm 1,1 km/h (1 Bft) N-NE 22 0 min 0 W/m -0,5 C 4,3 C 4,0 km/h (1 Bft)
17/05/2012 04:50 4,2 C 71 % 1017,4 hPa 0,0 mm 0,7 km/h (0 Bft) N 360 0 min 0 W/m -0,6 C 4,2 C 0,7 km/h (0 Bft)
17/05/2012 05:00 4,1 C 71 % 1017,3 hPa 0,0 mm 1,4 km/h (1 Bft) NE 45 0 min 0 W/m -0,7 C 4,1 C 3,6 km/h (1 Bft)
17/05/2012 05:10 4,1 C 72 % 1017,3 hPa 0,0 mm 0,4 km/h (0 Bft) N-NE 22 0 min 0 W/m -0,5 C 4,1 C 3,6 km/h (1 Bft)
17/05/2012 05:20 4,0 C 72 % 1017,3 hPa 0,0 mm 0,0 km/h (0 Bft) N 360 0 min 0 W/m -0,6 C 4,0 C 0,0 km/h (0 Bft)
17/05/2012 05:30 3,9 C 72 % 1017,4 hPa 0,0 mm 0,0 km/h (0 Bft) N-NO 337 0 min 0 W/m -0,7 C 3,9 C 0,0 km/h (0 Bft)
17/05/2012 05:40 3,8 C 73 % 1017,6 hPa 0,0 mm 0,4 km/h (0 Bft) N-NO 337 0 min 0 W/m -0,6 C 3,8 C 0,4 km/h (0 Bft)
17/05/2012 05:50 3,7 C 73 % 1017,3 hPa 0,0 mm 0,7 km/h (0 Bft) E-NE 67 0 min 0 W/m -0,7 C 3,7 C 3,2 km/h (1 Bft)
17/05/2012 06:00 3,6 C 74 % 1016,9 hPa 0,0 mm 1,4 km/h (1 Bft) N 360 0 min 0 W/m -0,6 C 3,6 C 4,3 km/h (1 Bft)
17/05/2012 06:10 3,6 C 75 % 1016,5 hPa 0,0 mm 2,2 km/h (1 Bft) N-NE 22 0 min 0 W/m -0,4 C 3,6 C 3,6 km/h (1 Bft)
17/05/2012 06:20 3,7 C 76 % 1016,4 hPa 0,0 mm 0,0 km/h (0 Bft) N 360 0 min 0 W/m -0,1 C 3,7 C 0,0 km/h (0 Bft)
17/05/2012 06:30 3,8 C 75 % 1016,3 hPa 0,0 mm 0,0 km/h (0 Bft) NE 45 0 min 0 W/m -0,2 C 3,8 C 0,0 km/h (0 Bft)
17/05/2012 06:40 4,0 C 75 % 1016,4 hPa 0,0 mm 0,0 km/h (0 Bft) N-NE 22 0 min 0 W/m -0,0 C 4,0 C 0,0 km/h (0 Bft)
17/05/2012 06:50 4,1 C 75 % 1016,4 hPa 0,0 mm 0,0 km/h (0 Bft) N 360 0 min 0 W/m 0,1 C 4,1 C 0,0 km/h (0 Bft)
17/05/2012 07:00 4,2 C 75 % 1016,0 hPa 0,0 mm 0,0 km/h (0 Bft) NE 45 0 min 0 W/m 0,2 C 4,2 C 0,0 km/h (0 Bft)
17/05/2012 07:10 4,4 C 75 % 1016,1 hPa 0,0 mm 0,0 km/h (0 Bft) N-NE 22 0 min 0 W/m 0,4 C 4,4 C 0,0 km/h (0 Bft)
17/05/2012 07:20 4,8 C 74 % 1015,7 hPa 0,0 mm 1,1 km/h (1 Bft) S-SE 157 0 min 0 W/m 0,6 C 4,8 C 3,2 km/h (1 Bft)
17/05/2012 07:30 5,4 C 74 % 1015,2 hPa 0,0 mm 0,7 km/h (0 Bft) E 90 0 min 0 W/m 1,1 C 5,4 C 4,0 km/h (1 Bft)
17/05/2012 07:40 5,8 C 72 % 1013,8 hPa 0,0 mm 6,1 km/h (2 Bft) E 90 0 min 0 W/m 1,2 C 4,6 C 13,0 km/h (3 Bft)
17/05/2012 07:50 6,1 C 70 % 1014,0 hPa 0,0 mm 8,6 km/h (2 Bft) E-NE 67 0 min 0 W/m 1,0 C 4,3 C 19,4 km/h (3 Bft)
17/05/2012 08:00 6,3 C 69 % 1013,7 hPa 0,0 mm 6,5 km/h (2 Bft) E 90 0 min 0 W/m 1,0 C 5,1 C 13,3 km/h (3 Bft)
17/05/2012 08:10 6,6 C 68 % 1013,1 hPa 0,0 mm 4,3 km/h (1 Bft) E-SE 112 0 min 0 W/m 1,1 C 6,6 C 4,3 km/h (1 Bft)
17/05/2012 08:20 6,8 C 68 % 1012,7 hPa 0,0 mm 3,2 km/h (1 Bft) S-SE 157 0 min 0 W/m 1,3 C 6,8 C 4,0 km/h (1 Bft)
17/05/2012 08:30 7,1 C 68 % 1012,4 hPa 0,0 mm 2,9 km/h (1 Bft) NE 45 0 min 0 W/m 1,6 C 7,1 C 3,6 km/h (1 Bft)
17/05/2012 08:40 7,3 C 68 % 1014,5 hPa 0,0 mm 5,0 km/h (1 Bft) NO 315 0 min 0 W/m 1,8 C 6,7 C 15,1 km/h (3 Bft)
17/05/2012 08:50 7,6 C 68 % 1015,6 hPa 0,0 mm 8,3 km/h (2 Bft) NO 315 0 min 0 W/m 2,1 C 6,1 C 8,3 km/h (2 Bft)
17/05/2012 09:00 7,9 C 68 % 1015,6 hPa 0,0 mm 1,4 km/h (1 Bft) N-NE 22 0 min 0 W/m 2,4 C 7,9 C 4,3 km/h (1 Bft)
17/05/2012 09:10 8,3 C 66 % 1015,2 hPa 0,0 mm 1,8 km/h (1 Bft) N-NE 22 0 min 0 W/m 2,3 C 8,3 C 4,3 km/h (1 Bft)
17/05/2012 09:20 8,6 C 66 % 1014,5 hPa 0,0 mm 0,0 km/h (0 Bft) E 90 0 min 0 W/m 2,6 C 8,6 C 0,0 km/h (0 Bft)
17/05/2012 09:30 8,9 C 66 % 1014,4 hPa 0,0 mm 1,1 km/h (1 Bft) E-NE 67 0 min 0 W/m 2,9 C 8,9 C 3,6 km/h (1 Bft)
17/05/2012 09:40 9,4 C 65 % 1014,0 hPa 0,0 mm 5,0 km/h (1 Bft) E-SE 112 0 min 0 W/m 3,2 C 9,1 C 8,3 km/h (2 Bft)
17/05/2012 09:50 9,9 C 62 % 1013,6 hPa 0,0 mm 7,9 km/h (2 Bft) E-NE 67 0 min 0 W/m 3,0 C 8,9 C 11,5 km/h (2 Bft)
17/05/2012 10:00 10,3 C 61 % 1013,4 hPa 0,0 mm 5,4 km/h (2 Bft) E-SE 112 0 min 0 W/m 3,1 C 10,3 C 5,4 km/h (2 Bft)
17/05/2012 10:10 10,6 C 60 % 1013,3 hPa 0,0 mm 4,0 km/h (1 Bft) E-SE 112 0 min 0 W/m 3,2 C 10,6 C 6,1 km/h (2 Bft)
17/05/2012 10:20 11,0 C 59 % 1012,7 hPa 0,0 mm 7,6 km/h (2 Bft) SO 225 0 min 0 W/m 3,3 C 11,0 C 8,6 km/h (2 Bft)
17/05/2012 10:30 11,4 C 57 % 1012,4 hPa 0,0 mm 9,0 km/h (2 Bft) SE 135 0 min 0 W/m 3,2 C 11,4 C 16,2 km/h (3 Bft)
17/05/2012 10:40 11,8 C 58 % 1012,4 hPa 0,0 mm 0,0 km/h (0 Bft) S-SE 157 0 min 0 W/m 3,8 C 11,8 C 4,0 km/h (1 Bft)
17/05/2012 10:50 12,3 C 56 % 1012,5 hPa 0,0 mm 4,3 km/h (1 Bft) S-SE 157 0 min 0 W/m 3,8 C 12,3 C 7,9 km/h (2 Bft)
17/05/2012 11:00 12,6 C 56 % 1012,4 hPa 0,0 mm 4,0 km/h (1 Bft) SE 135 0 min 0 W/m 4,1 C 12,6 C 7,2 km/h (2 Bft)
17/05/2012 11:10 13,3 C 56 % 1012,4 hPa 0,0 mm 0,0 km/h (0 Bft) E 90 0 min 0 W/m 4,7 C 13,3 C 0,0 km/h (0 Bft)
17/05/2012 11:20 14,2 C 55 % 1012,1 hPa 0,0 mm 0,7 km/h (0 Bft) E-SE 112 0 min 0 W/m 5,3 C 14,2 C 2,9 km/h (1 Bft)
17/05/2012 11:30 14,9 C 54 % 1011,7 hPa 0,0 mm 1,4 km/h (1 Bft) SE 135 0 min 0 W/m 5,7 C 14,9 C 4,3 km/h (1 Bft)
17/05/2012 11:40 15,6 C 52 % 1011,5 hPa 0,0 mm 4,7 km/h (1 Bft) S-SE 157 0 min 0 W/m 5,8 C 15,6 C 4,7 km/h (1 Bft)
17/05/2012 11:50 16,4 C 51 % 1011,3 hPa 0,0 mm 4,3 km/h (1 Bft) E-NE 67 0 min 0 W/m 6,2 C 16,4 C 8,3 km/h (2 Bft)
17/05/2012 12:00 17,2 C 49 % 1011,2 hPa 0,0 mm 0,0 km/h (0 Bft) E-SE 112 0 min 0 W/m 6,4 C 17,2 C 0,0 km/h (0 Bft)
17/05/2012 12:10 18,0 C 47 % 1010,9 hPa 0,0 mm 4,3 km/h (1 Bft) SE 135 0 min 0 W/m 6,5 C 18,0 C 4,3 km/h (1 Bft)
17/05/2012 12:20 18,8 C 44 % 1010,6 hPa 0,0 mm 4,7 km/h (1 Bft) SE 135 0 min 0 W/m 6,3 C 18,8 C 7,9 km/h (2 Bft)
17/05/2012 12:30 19,4 C 41 % 1010,5 hPa 0,0 mm 5,8 km/h (2 Bft) E-SE 112 0 min 0 W/m 5,8 C 19,4 C 10,1 km/h (2 Bft)
17/05/2012 12:40 20,2 C 39 % 1010,5 hPa 0,0 mm 2,5 km/h (1 Bft) SE 135 0 min 0 W/m 5,8 C 20,2 C 6,1 km/h (2 Bft)
17/05/2012 12:50 21,0 C 39 % 1010,2 hPa 0,0 mm 3,2 km/h (1 Bft) SE 135 0 min 0 W/m 6,5 C 21,0 C 7,9 km/h (2 Bft)
17/05/2012 13:00 21,7 C 35 % 1009,9 hPa 0,0 mm 7,9 km/h (2 Bft) E-SE 112 0 min 0 W/m 5,6 C 21,7 C 14,0 km/h (3 Bft)
17/05/2012 13:10 22,3 C 35 % 1009,5 hPa 0,0 mm 5,8 km/h (2 Bft) SE 135 0 min 0 W/m 6,1 C 22,3 C 11,9 km/h (2 Bft)
17/05/2012 13:20 22,8 C 33 % 1009,5 hPa 0,0 mm 4,0 km/h (1 Bft) E 90 0 min 0 W/m 5,7 C 22,8 C 8,6 km/h (2 Bft)
17/05/2012 13:30 23,1 C 33 % 1009,5 hPa 0,0 mm 1,8 km/h (1 Bft) E-SE 112 0 min 0 W/m 5,9 C 23,1 C 6,5 km/h (2 Bft)
17/05/2012 13:40 23,4 C 32 % 1009,1 hPa 0,0 mm 7,6 km/h (2 Bft) E-SE 112 0 min 0 W/m 5,8 C 23,4 C 10,4 km/h (2 Bft)
17/05/2012 13:50 23,8 C 32 % 1009,0 hPa 0,0 mm 7,2 km/h (2 Bft) S-SE 157 0 min 0 W/m 6,1 C 23,8 C 9,0 km/h (2 Bft)
17/05/2012 14:00 24,1 C 32 % 1008,6 hPa 0,0 mm 5,4 km/h (2 Bft) E-SE 112 0 min 0 W/m 6,4 C 24,1 C 7,9 km/h (2 Bft)
17/05/2012 14:10 24,3 C 32 % 1008,4 hPa 0,0 mm 6,8 km/h (2 Bft) SE 135 0 min 0 W/m 6,5 C 24,3 C 6,8 km/h (2 Bft)
17/05/2012 14:20 24,6 C 33 % 1008,2 hPa 0,0 mm 7,9 km/h (2 Bft) SE 135 0 min 0 W/m 7,2 C 24,6 C 10,8 km/h (2 Bft)
17/05/2012 14:30 24,9 C 31 % 1008,3 hPa 0,0 mm 8,3 km/h (2 Bft) SE 135 0 min 0 W/m 6,6 C 24,9 C 8,3 km/h (2 Bft)
17/05/2012 14:40 25,3 C 31 % 1008,0 hPa 0,0 mm 9,7 km/h (2 Bft) E-SE 112 0 min 0 W/m 6,9 C 25,3 C 13,0 km/h (3 Bft)
17/05/2012 14:50 25,6 C 33 % 1008,2 hPa 0,0 mm 2,5 km/h (1 Bft) S-SO 202 0 min 0 W/m 8,1 C 25,6 C 4,0 km/h (1 Bft)
17/05/2012 15:00 25,9 C 30 % 1007,9 hPa 0,0 mm 4,3 km/h (1 Bft) S 180 0 min 0 W/m 7,0 C 25,9 C 6,5 km/h (2 Bft)
17/05/2012 15:10 26,1 C 31 % 1007,7 hPa 0,0 mm 4,3 km/h (1 Bft) S-SE 157 0 min 0 W/m 7,6 C 26,1 C 8,3 km/h (2 Bft)
17/05/2012 15:20 26,4 C 29 % 1007,6 hPa 0,0 mm 12,2 km/h (2 Bft) S-SE 157 0 min 0 W/m 6,9 C 26,4 C 12,2 km/h (2 Bft)
17/05/2012 15:30 26,5 C 28 % 1007,3 hPa 0,0 mm 4,7 km/h (1 Bft) E-SE 112 0 min 0 W/m 6,5 C 26,5 C 8,3 km/h (2 Bft)
17/05/2012 15:40 26,6 C 26 % 1007,3 hPa 0,0 mm 7,6 km/h (2 Bft) S 180 0 min 0 W/m 5,5 C 26,6 C 10,4 km/h (2 Bft)
17/05/2012 15:50 26,6 C 27 % 1007,4 hPa 0,0 mm 5,4 km/h (2 Bft) SO 225 0 min 0 W/m 6,1 C 26,6 C 7,9 km/h (2 Bft)
17/05/2012 16:00 26,5 C 27 % 1007,4 hPa 0,0 mm 7,6 km/h (2 Bft) S-SO 202 0 min 0 W/m 6,0 C 26,5 C 13,0 km/h (3 Bft)
17/05/2012 16:10 26,4 C 27 % 1007,3 hPa 0,0 mm 5,4 km/h (2 Bft) S-SO 202 0 min 0 W/m 5,9 C 26,4 C 8,3 km/h (2 Bft)
17/05/2012 16:20 26,3 C 27 % 1007,0 hPa 0,0 mm 7,6 km/h (2 Bft) S-SO 202 0 min 0 W/m 5,8 C 26,3 C 14,0 km/h (3 Bft)
17/05/2012 16:30 26,3 C 27 % 1006,8 hPa 0,0 mm 5,4 km/h (2 Bft) S 180 0 min 0 W/m 5,8 C 26,3 C 7,9 km/h (2 Bft)
17/05/2012 16:40 25,9 C 28 % 1006,7 hPa 0,0 mm 5,0 km/h (1 Bft) S-SO 202 0 min 0 W/m 6,0 C 25,9 C 9,4 km/h (2 Bft)
17/05/2012 16:50 26,0 C 29 % 1006,6 hPa 0,0 mm 5,8 km/h (2 Bft) S-SO 202 0 min 0 W/m 6,6 C 26,0 C 6,5 km/h (2 Bft)
17/05/2012 17:00 26,1 C 31 % 1006,4 hPa 0,0 mm 7,9 km/h (2 Bft) S-SE 157 0 min 0 W/m 7,6 C 26,1 C 11,2 km/h (2 Bft)
17/05/2012 17:10 26,1 C 29 % 1006,2 hPa 0,0 mm 5,0 km/h (1 Bft) S 180 0 min 0 W/m 6,7 C 26,1 C 8,6 km/h (2 Bft)
17/05/2012 17:20 25,9 C 27 % 1005,9 hPa 0,0 mm 10,1 km/h (2 Bft) S-SO 202 0 min 0 W/m 5,5 C 25,9 C 10,1 km/h (2 Bft)
17/05/2012 17:30 25,9 C 28 % 1005,9 hPa 0,0 mm 6,1 km/h (2 Bft) S-SE 157 0 min 0 W/m 6,0 C 25,9 C 7,9 km/h (2 Bft)
17/05/2012 17:40 26,1 C 30 % 1005,8 hPa 0,0 mm 6,5 km/h (2 Bft) S 180 0 min 0 W/m 7,2 C 26,1 C 6,5 km/h (2 Bft)
17/05/2012 17:50 26,1 C 31 % 1005,6 hPa 0,0 mm 5,8 km/h (2 Bft) SE 135 0 min 0 W/m 7,6 C 26,1 C 8,6 km/h (2 Bft)
17/05/2012 18:00 26,0 C 29 % 1005,7 hPa 0,0 mm 10,1 km/h (2 Bft) S-SO 202 0 min 0 W/m 6,6 C 26,0 C 10,1 km/h (2 Bft)
17/05/2012 18:10 25,6 C 30 % 1005,6 hPa 0,0 mm 8,3 km/h (2 Bft) S 180 0 min 0 W/m 6,7 C 25,6 C 14,0 km/h (3 Bft)
17/05/2012 18:20 25,3 C 34 % 1005,5 hPa 0,0 mm 8,3 km/h (2 Bft) SO 225 0 min 0 W/m 8,3 C 25,3 C 8,3 km/h (2 Bft)
17/05/2012 18:30 25,1 C 35 % 1005,5 hPa 0,0 mm 3,6 km/h (1 Bft) S-SO 202 0 min 0 W/m 8,6 C 25,1 C 4,3 km/h (1 Bft)
17/05/2012 18:40 24,6 C 35 % 1005,4 hPa 0,0 mm 6,5 km/h (2 Bft) S 180 0 min 0 W/m 8,1 C 24,6 C 6,5 km/h (2 Bft)
17/05/2012 18:50 24,4 C 37 % 1005,3 hPa 0,0 mm 4,7 km/h (1 Bft) S-SO 202 0 min 0 W/m 8,8 C 24,4 C 8,3 km/h (2 Bft)
17/05/2012 19:00 24,3 C 39 % 1005,3 hPa 0,0 mm 2,5 km/h (1 Bft) S 180 0 min 0 W/m 9,4 C 24,3 C 9,7 km/h (2 Bft)
17/05/2012 19:10 24,4 C 38 % 1005,0 hPa 0,0 mm 5,0 km/h (1 Bft) SO 225 0 min 0 W/m 9,2 C 24,4 C 5,0 km/h (1 Bft)
17/05/2012 19:20 24,4 C 36 % 1005,1 hPa 0,0 mm 7,9 km/h (2 Bft) S 180 0 min 0 W/m 8,4 C 24,4 C 13,0 km/h (3 Bft)
17/05/2012 19:30 24,0 C 36 % 1005,2 hPa 0,0 mm 6,8 km/h (2 Bft) S-SO 202 0 min 0 W/m 8,0 C 24,0 C 8,6 km/h (2 Bft)
17/05/2012 19:40 23,8 C 36 % 1005,3 hPa 0,0 mm 7,6 km/h (2 Bft) S-SO 202 0 min 0 W/m 7,8 C 23,8 C 8,6 km/h (2 Bft)
17/05/2012 19:50 23,6 C 38 % 1005,2 hPa 0,0 mm 4,7 km/h (1 Bft) S-SO 202 0 min 0 W/m 8,4 C 23,6 C 6,1 km/h (2 Bft)
17/05/2012 20:00 23,3 C 39 % 1005,3 hPa 0,0 mm 4,3 km/h (1 Bft) S-SO 202 0 min 0 W/m 8,6 C 23,3 C 7,2 km/h (2 Bft)
17/05/2012 20:10 23,1 C 39 % 1005,1 hPa 0,0 mm 3,2 km/h (1 Bft) SO 225 0 min 0 W/m 8,4 C 23,1 C 7,2 km/h (2 Bft)
17/05/2012 20:20 22,7 C 41 % 1005,2 hPa 0,0 mm 4,7 km/h (1 Bft) S-SO 202 0 min 0 W/m 8,8 C 22,7 C 7,9 km/h (2 Bft)
17/05/2012 20:30 22,3 C 41 % 1005,3 hPa 0,0 mm 12,2 km/h (2 Bft) S-SO 202 0 min 0 W/m 8,4 C 22,3 C 16,9 km/h (3 Bft)
17/05/2012 20:40 22,0 C 42 % 1005,2 hPa 0,0 mm 5,4 km/h (2 Bft) S-SO 202 0 min 0 W/m 8,5 C 22,0 C 7,9 km/h (2 Bft)
17/05/2012 20:50 21,7 C 42 % 1005,3 hPa 0,0 mm 7,6 km/h (2 Bft) S-SO 202 0 min 0 W/m 8,2 C 21,7 C 10,8 km/h (2 Bft)
17/05/2012 21:00 21,4 C 44 % 1005,3 hPa 0,0 mm 4,7 km/h (1 Bft) SO 225 0 min 0 W/m 8,6 C 21,4 C 4,7 km/h (1 Bft)
17/05/2012 21:10 21,1 C 45 % 1005,4 hPa 0,0 mm 2,5 km/h (1 Bft) O-SO 247 0 min 0 W/m 8,7 C 21,1 C 4,3 km/h (1 Bft)
17/05/2012 21:20 20,7 C 46 % 1005,4 hPa 0,0 mm 0,7 km/h (0 Bft) SO 225 0 min 0 W/m 8,7 C 20,7 C 4,0 km/h (1 Bft)
17/05/2012 21:30 20,4 C 47 % 1005,6 hPa 0,0 mm 4,0 km/h (1 Bft) SO 225 0 min 0 W/m 8,7 C 20,4 C 9,0 km/h (2 Bft)
17/05/2012 21:40 20,1 C 48 % 1005,6 hPa 0,0 mm 5,8 km/h (2 Bft) SO 225 0 min 0 W/m 8,7 C 20,1 C 10,8 km/h (2 Bft)
17/05/2012 21:50 19,8 C 47 % 1005,6 hPa 0,0 mm 10,1 km/h (2 Bft) SO 225 0 min 0 W/m 8,2 C 19,8 C 16,9 km/h (3 Bft)
17/05/2012 22:00 19,7 C 48 % 1005,7 hPa 0,0 mm 5,8 km/h (2 Bft) SO 225 0 min 0 W/m 8,4 C 19,7 C 7,9 km/h (2 Bft)
17/05/2012 22:10 19,4 C 49 % 1005,7 hPa 0,0 mm 4,3 km/h (1 Bft) S-SO 202 0 min 0 W/m 8,4 C 19,4 C 6,8 km/h (2 Bft)
17/05/2012 22:20 19,1 C 49 % 1005,7 hPa 0,0 mm 3,2 km/h (1 Bft) SO 225 0 min 0 W/m 8,1 C 19,1 C 6,5 km/h (2 Bft)
17/05/2012 22:30 18,8 C 51 % 1005,9 hPa 0,0 mm 6,5 km/h (2 Bft) S-SO 202 0 min 0 W/m 8,4 C 18,8 C 9,7 km/h (2 Bft)
17/05/2012 22:40 18,5 C 53 % 1006,3 hPa 0,0 mm 4,7 km/h (1 Bft) S-SO 202 0 min 0 W/m 8,7 C 18,5 C 8,3 km/h (2 Bft)
17/05/2012 22:50 18,3 C 55 % 1006,6 hPa 0,0 mm 4,7 km/h (1 Bft) N 360 0 min 0 W/m 9,1 C 18,3 C 4,7 km/h (1 Bft)
17/05/2012 23:00 17,8 C 61 % 1006,5 hPa 0,0 mm 6,5 km/h (2 Bft) SO 225 0 min 0 W/m 10,2 C 17,8 C 6,5 km/h (2 Bft)
17/05/2012 23:10 17,3 C 64 % 1006,6 hPa 0,0 mm 7,2 km/h (2 Bft) S-SO 202 0 min 0 W/m 10,4 C 17,3 C 7,2 km/h (2 Bft)
17/05/2012 23:20 16,8 C 67 % 1006,6 hPa 0,0 mm 5,4 km/h (2 Bft) SO 225 0 min 0 W/m 10,6 C 16,8 C 10,4 km/h (2 Bft)
17/05/2012 23:30 16,3 C 68 % 1006,9 hPa 0,0 mm 4,0 km/h (1 Bft) S-SO 202 0 min 0 W/m 10,4 C 16,3 C 8,3 km/h (2 Bft)
17/05/2012 23:40 15,8 C 71 % 1007,1 hPa 0,0 mm 4,7 km/h (1 Bft) SO 225 0 min 0 W/m 10,6 C 15,8 C 10,1 km/h (2 Bft)
17/05/2012 23:50 15,2 C 76 % 1007,3 hPa 0,0 mm 10,8 km/h (2 Bft) S-SO 202 0 min 0 W/m 11,0 C 15,2 C 14,8 km/h (3 Bft)
_ Min-Heure 06:10 15:40 19:10 - 12:00 - - - - 02:50 06:10 12:00
Minimum _ 3,6 C 26 % 1005,0 hPa - 0,0 km/h (0 Bft) - - - - -0,7 C 3,6 C 0,0 km/h (0 Bft)
_ Max-Heure 15:50 23:50 00:00 23:50 20:30 - - 23:50 23:50 23:50 15:50 07:50
Maximum _ 26,6 C 76 % 1021,7 hPa 0,0 mm 12,2 km/h
S-SO (2 Bft)
- - 0 min 0 W/m 11,0 C 26,6 C 19,4 km/h
E-NE (3 Bft)
Moyenne _ 14,9 C 53 % 1011,7 hPa #0,0 mm 3,9 km/h (1 Bft) S-SO - #0 min. 0 W/m 4,3 C 14,8 C 6,3 km/h (2 Bft)
Saint Bonnet de Bellac- Haute Vienne - France